This demonstration page uses our WeatherBlox Daily Observations layout. Learn more.

39.29038, -76.61219

Hourly Observations for July 11, 2019

Temp ( °F °C ) Dew Point ( °F °C ) Humidity (%) Winds ( mph kmh ) Pressure ( in mb ) Visibility ( mi km ) Precip ( " mm )
12:54 am 00:54 undefined 78 25.6 62 16.7 58 58 undefined N/A 29.97 1015 N/A 0 0
1:54 am 01:54 undefined 78 25.6 64 17.8 62 62 undefined N/A 29.97 1015 N/A 0 0
2:54 am 02:54 undefined 77 25 67 19.4 71 71 undefined N/A 29.94 1014 N/A 0 0
3:54 am 03:54 undefined 77 25 69 20.6 77 77 undefined N/A 29.91 1013 N/A 0 0
4:54 am 04:54 undefined 77 25 70 21.1 79 79 undefined N/A 29.94 1014 N/A 0 0
5:54 am 05:54 undefined 77 25 71 21.7 82 82 undefined N/A 29.94 1014 N/A 0 0
6:54 am 06:54 undefined 77 25 72 22.2 85 85 undefined N/A 29.94 1014 N/A 0 0
7:54 am 07:54 undefined 78 25.6 73 22.8 85 85 undefined N/A 29.94 1014 N/A 0 0
8:54 am 08:54 undefined 80 26.7 73 22.8 79 79 undefined N/A 29.91 1013 N/A 0 0
9:54 am 09:54 undefined 84 28.9 74 23.3 72 72 undefined N/A 29.88 1012 N/A 0 0
10:54 am 10:54 undefined 85 29.4 74 23.3 70 70 undefined N/A 29.88 1012 N/A 0 0
11:54 am 11:54 undefined 86 30 76 24.4 72 72 undefined N/A 29.88 1012 N/A 0 0
12:54 pm 12:54 undefined 80 26.7 75 23.9 85 85 undefined N/A 29.85 1011 N/A 0.02 0.508
1:54 pm 13:54 undefined 85 29.4 76 24.4 75 75 undefined N/A 29.83 1010 N/A 0 0
2:54 pm 14:54 undefined 86 30 77 25 75 75 undefined N/A 29.77 1008 N/A 0 0
3:54 pm 15:54 undefined 87 30.6 77 25 72 72 undefined N/A 29.77 1008 N/A 0 0
4:54 pm 16:54 undefined 79 26.1 75 23.9 88 88 undefined N/A 29.77 1008 N/A 0.07 1.778
5:54 pm 17:54 undefined 79 26.1 72 22.2 79 79 undefined N/A 29.8 1009 N/A 0.01 0.254
6:54 pm 18:54 undefined 78 25.6 73 22.8 85 85 undefined N/A 29.77 1008 N/A 0 0
7:54 pm 19:54 undefined 76 24.4 74 23.3 94 94 undefined N/A 29.77 1008 N/A 0.1 2.54
8:54 pm 20:54 undefined 76 24.4 73 22.8 91 91 undefined N/A 29.77 1008 N/A 0.03 0.762
9:54 pm 21:54 undefined 76 24.4 74 23.3 94 94 undefined N/A 29.8 1009 N/A 0 0
10:54 pm 22:54 undefined 75 23.9 72 22.2 90 90 undefined N/A 29.77 1008 N/A 0 0
11:54 pm 23:54 undefined 73 23 72 22 94 94 undefined N/A N/A N/A 0 0

Powered by AerisWeather